IRIDIUM 33 DEB, 33884

Orbit data source: Space-Track

IRIDIUM 33 DEB, 33884 is space debris in LEO originally from a launch on Sun, 14 Sep 1997 UTC launched from the Tyuratam Missile And Space Complex (TTMTR). The debris from Iridium 33, an American commercial communications satellite, has been tracked extensively since its accidental collision with the defunct Russian satellite Cosmos 2251 in 2009. This event, occurring at high speed in low Earth orbit (LEO), generated thousands of pieces of space debris, significantly increasing the risk of further collisions. The Iridium 33 debris cloud has impacted space traffic management and orbital debris mitigation strategies, making it a subject of ongoing study in space situational awareness.

Loading next visibility...
Identifier
33884, 1997-051BD
Orbit
LEO
Country
Flag of USUS
Related business
Manufacturer
Unknown
Mission
Spacecraft
Bus & Motor
Unknown
Mass
Unknown
Launch date (UTC)
1997-09-14 (28 years ago)
Launch vehicle
Unknown
Launch site
Tyuratam Missile And Space Complex (TTMTR)
Object type
Payload
Rocket body
Debris
Shape & HBR
Unknown shape, 0.2 m
Radar Cross Section
Small (<0.1 m²)

Expand to show TLE details & history
Last TLE update: 11 hours ago

TLE from 11 hours ago
0 IRIDIUM 33 DEB
1 33884U 97051BD  25305.52060234  .00009015  00000-0  12928-2 0  9994
2 33884  86.3710  28.4053 0012992  99.1743 272.1025 14.76368175882398
Epoch: 2025-11-01T12:29Z
TLE epoch observation values (Epoch: 2025-11-01T12:29:40.042Z)
Latitude
11.05395°
Longitude
160.64504°
Altitude
642.839 km
Speed
7.538 km/s
True Right ascension
01h 56m 26s
True Declination
10° 59' 18"
Sunlit
Object was in full shadow at epoch
Visualization orbit readout
Latitude
Unknown
Longitude
Unknown
Altitude
Unknown
Speed
Unknown
Apparent Right ascension
Unknown
Apparent Declination
Unknown
Sunlit
N/A
Visualization observer readout
Local Sidereal Time
19:31:50
Azimuth
Unknown
Elevation
Unknown
Doppler factor
Unknown
Orbital elements
Apogee altitude
646.832 km
Perigee altitude
628.602 km
Semi-major axis
7,015.854 km
Eccentricity
0.0013
Inclination
86.371°
RAAN
28.4053°
Arg. of periapsis
99.1743°
True anomaly
271.95371°
Mean anomaly
272.1025°
Eccentric anomaly
272.02811°
Mean motion
3.69337 °/min
Orbital period
97.47 mins
BSTAR
0.0012928
Loading maneuver chart data...
Computing Atmospheric mass density...

Documentation

Showing up to 5 results
|